TIANQI 36

Last updated on Sun Jan 19 2025 00:02:03 GMT+0000 (Coordinated Universal Time)

1 62368U 24245D 25018.58409980 .00000633 00000+0 43115-3 0 9999 2 62368 44.9847 91.2152 0008130 116.6009 243.5661 14.09928283 4274
UTC large
Height (km)
Speed (km/s)
/
Latitude / Longitude
Inclination (degrees)
Orbital Period (minutes)
Azimuth
Elevation
Range (km)
Doppler Factor

Next 0 passes for location: London (51.5072 / 0.1276)

Sorry there are no passes over London.